Time,TemperatureF,DewpointF,PressureIn,WindDirection,WindDirectionDegrees,WindSpeedMPH,WindSpeedGustMPH,Humidity,HourlyPrecipIn,Conditions,Clouds,dailyrainin,SolarRadiationWatts/m^2,SoftwareType,DateUTC
2013-06-18 00:02:00,52.0,49.0,-100.00,WSW,242,2.0,3.0,90,0.00,,,0.30,0.000000,,2013-06-18 05:02:00,
2013-06-18 00:22:00,50.0,48.0,-100.00,SSW,195,4.0,7.0,93,0.00,,,0.30,0.000000,,2013-06-18 05:22:00,
2013-06-18 00:34:00,50.0,48.0,-100.00,SSW,195,4.0,7.0,93,0.00,,,0.30,0.000000,,2013-06-18 05:34:00,
2013-06-18 00:43:00,50.0,48.0,-100.00,SSW,195,4.0,7.0,93,0.00,,,0.30,0.000000,,2013-06-18 05:43:00,
2013-06-18 00:53:00,50.0,48.0,-100.00,SSW,195,4.0,7.0,93,0.00,,,0.30,0.000000,,2013-06-18 05:53:00,
2013-06-18 01:24:00,48.0,46.0,-100.00,South,178,4.0,6.0,92,0.00,,,0.30,0.000000,,2013-06-18 06:24:00,
2013-06-18 01:33:00,48.0,46.0,-100.00,South,178,4.0,6.0,92,0.00,,,0.30,0.000000,,2013-06-18 06:33:00,
2013-06-18 01:43:00,48.0,46.0,-100.00,South,178,4.0,6.0,92,0.00,,,0.30,0.000000,,2013-06-18 06:43:00,
2013-06-18 01:53:00,48.0,46.0,-100.00,South,178,4.0,6.0,92,0.00,,,0.30,0.000000,,2013-06-18 06:53:00,
2013-06-18 02:02:00,48.0,46.0,-100.00,South,178,4.0,6.0,92,0.00,,,0.30,0.000000,,2013-06-18 07:02:00,
2013-06-18 02:22:00,45.0,40.0,-100.00,SW,216,2.0,6.0,83,0.00,,,0.30,0.000000,,2013-06-18 07:22:00,
2013-06-18 02:33:00,45.0,40.0,-100.00,SW,216,2.0,6.0,83,0.00,,,0.30,0.000000,,2013-06-18 07:33:00,
2013-06-18 02:43:00,45.0,40.0,-100.00,SW,216,2.0,6.0,83,0.00,,,0.30,0.000000,,2013-06-18 07:43:00,
2013-06-18 02:53:00,45.0,40.0,-100.00,SW,216,2.0,6.0,83,0.00,,,0.30,0.000000,,2013-06-18 07:53:00,
2013-06-18 03:01:00,45.0,40.0,-100.00,SW,216,2.0,6.0,83,0.00,,,0.30,0.000000,,2013-06-18 08:01:00,
2013-06-18 03:23:00,44.0,39.0,-100.00,WSW,247,2.0,4.0,84,0.00,,,0.30,0.000000,,2013-06-18 08:23:00,
2013-06-18 03:33:00,44.0,39.0,-100.00,WSW,247,2.0,4.0,84,0.00,,,0.30,0.000000,,2013-06-18 08:33:00,
2013-06-18 03:43:00,44.0,39.0,-100.00,WSW,247,2.0,4.0,84,0.00,,,0.30,0.000000,,2013-06-18 08:43:00,
2013-06-18 03:52:00,44.0,39.0,-100.00,WSW,247,2.0,4.0,84,0.00,,,0.30,0.000000,,2013-06-18 08:52:00,
2013-06-18 04:02:00,44.0,39.0,-100.00,WSW,247,2.0,4.0,84,0.00,,,0.30,0.000000,,2013-06-18 09:02:00,
2013-06-18 04:22:00,43.0,39.0,-100.00,WSW,246,2.0,5.0,86,0.00,,,0.30,0.000000,,2013-06-18 09:22:00,
2013-06-18 04:34:00,43.0,39.0,-100.00,WSW,246,2.0,5.0,86,0.00,,,0.30,0.000000,,2013-06-18 09:34:00,
2013-06-18 04:43:00,43.0,39.0,-100.00,WSW,246,2.0,5.0,86,0.00,,,0.30,0.000000,,2013-06-18 09:43:00,
2013-06-18 04:53:00,43.0,39.0,-100.00,WSW,246,2.0,5.0,86,0.00,,,0.30,0.000000,,2013-06-18 09:53:00,
2013-06-18 05:02:00,43.0,39.0,-100.00,WSW,246,2.0,5.0,86,0.00,,,0.30,0.000000,,2013-06-18 10:02:00,
2013-06-18 05:22:00,44.0,39.0,-100.00,WSW,244,3.0,5.0,83,0.00,,,0.29,0.000000,,2013-06-18 10:22:00,
2013-06-18 05:33:00,44.0,39.0,-100.00,WSW,244,3.0,5.0,83,0.00,,,0.29,0.000000,,2013-06-18 10:33:00,
2013-06-18 05:43:00,44.0,39.0,-100.00,WSW,244,3.0,5.0,83,0.00,,,0.29,0.000000,,2013-06-18 10:43:00,
2013-06-18 05:53:00,44.0,39.0,-100.00,WSW,244,3.0,5.0,83,0.00,,,0.29,0.000000,,2013-06-18 10:53:00,
2013-06-18 06:02:00,44.0,39.0,-100.00,WSW,244,3.0,5.0,83,0.00,,,0.29,0.000000,,2013-06-18 11:02:00,
2013-06-18 06:32:00,45.0,37.0,-100.00,WSW,237,2.0,5.0,73,0.00,,,0.19,30.000000,,2013-06-18 11:32:00,
2013-06-18 08:34:00,59.0,42.0,-100.00,SW,216,3.0,5.0,54,0.00,,,0.03,374.000000,,2013-06-18 13:34:00,
2013-06-18 08:43:00,59.0,42.0,-100.00,SW,216,3.0,5.0,54,0.00,,,0.03,374.000000,,2013-06-18 13:43:00,
2013-06-18 08:53:00,59.0,42.0,-100.00,SW,216,3.0,5.0,54,0.00,,,0.03,374.000000,,2013-06-18 13:53:00,
2013-06-18 09:02:00,59.0,42.0,-100.00,SW,216,3.0,5.0,54,0.00,,,0.03,374.000000,,2013-06-18 14:02:00,
2013-06-18 09:43:00,64.0,43.0,-100.00,SW,222,3.0,6.0,46,0.00,,,0.01,582.000000,,2013-06-18 14:43:00,
2013-06-18 09:53:00,64.0,43.0,-100.00,SW,222,3.0,6.0,46,0.00,,,0.01,582.000000,,2013-06-18 14:53:00,
2013-06-18 10:02:00,64.0,43.0,-100.00,SW,222,3.0,6.0,46,0.00,,,0.01,582.000000,,2013-06-18 15:02:00,
2013-06-18 10:22:00,67.0,48.0,-100.00,South,171,3.0,6.0,50,0.00,,,0.01,750.000000,,2013-06-18 15:22:00,
2013-06-18 10:33:00,67.0,48.0,-100.00,South,171,3.0,6.0,50,0.00,,,0.01,750.000000,,2013-06-18 15:33:00,
2013-06-18 10:43:00,67.0,48.0,-100.00,South,171,3.0,6.0,50,0.00,,,0.01,750.000000,,2013-06-18 15:43:00,
2013-06-18 10:53:00,67.0,48.0,-100.00,South,171,3.0,6.0,50,0.00,,,0.01,750.000000,,2013-06-18 15:53:00,
2013-06-18 11:01:00,67.0,48.0,-100.00,South,171,3.0,6.0,50,0.00,,,0.01,750.000000,,2013-06-18 16:01:00,
2013-06-18 11:23:00,67.0,47.0,-100.00,SW,232,2.0,8.0,49,0.00,,,0.01,664.000000,,2013-06-18 16:23:00,
2013-06-18 11:33:00,67.0,47.0,-100.00,SW,232,2.0,8.0,49,0.00,,,0.01,664.000000,,2013-06-18 16:33:00,
2013-06-18 11:43:00,67.0,47.0,-100.00,SW,232,2.0,8.0,49,0.00,,,0.01,664.000000,,2013-06-18 16:43:00,
2013-06-18 11:53:00,67.0,47.0,-100.00,SW,232,2.0,8.0,49,0.00,,,0.01,664.000000,,2013-06-18 16:53:00,
2013-06-18 12:02:00,67.0,47.0,-100.00,SW,232,2.0,8.0,49,0.00,,,0.01,664.000000,,2013-06-18 17:02:00,
2013-06-18 12:22:00,69.0,41.0,-100.00,SSW,205,4.0,9.0,36,0.00,,,0.00,857.000000,,2013-06-18 17:22:00,
2013-06-18 12:34:00,69.0,41.0,-100.00,SSW,205,4.0,9.0,36,0.00,,,0.00,857.000000,,2013-06-18 17:34:00,
2013-06-18 12:43:00,69.0,41.0,-100.00,SSW,205,4.0,9.0,36,0.00,,,0.00,857.000000,,2013-06-18 17:43:00,
2013-06-18 12:53:00,69.0,41.0,-100.00,SSW,205,4.0,9.0,36,0.00,,,0.00,857.000000,,2013-06-18 17:53:00,
2013-06-18 13:02:00,69.0,41.0,-100.00,SSW,205,4.0,9.0,36,0.00,,,0.00,857.000000,,2013-06-18 18:02:00,
2013-06-18 13:22:00,71.0,40.0,-100.00,SSE,167,5.0,12.0,32,0.00,,,0.00,1079.000000,,2013-06-18 18:22:00,
2013-06-18 13:33:00,71.0,40.0,-100.00,SSE,167,5.0,12.0,32,0.00,,,0.00,1079.000000,,2013-06-18 18:33:00,
2013-06-18 13:43:00,71.0,40.0,-100.00,SSE,167,5.0,12.0,32,0.00,,,0.00,1079.000000,,2013-06-18 18:43:00,
2013-06-18 13:53:00,71.0,40.0,-100.00,SSE,167,5.0,12.0,32,0.00,,,0.00,1079.000000,,2013-06-18 18:53:00,
2013-06-18 14:02:00,71.0,40.0,-100.00,SSE,167,5.0,12.0,32,0.00,,,0.00,1079.000000,,2013-06-18 19:02:00,
2013-06-18 14:22:00,73.0,37.0,-100.00,SSW,206,4.0,11.0,27,0.00,,,0.00,1089.000000,,2013-06-18 19:22:00,
2013-06-18 14:33:00,73.0,37.0,-100.00,SSW,206,4.0,11.0,27,0.00,,,0.00,1089.000000,,2013-06-18 19:33:00,
2013-06-18 14:43:00,73.0,37.0,-100.00,SSW,206,4.0,11.0,27,0.00,,,0.00,1089.000000,,2013-06-18 19:43:00,
2013-06-18 14:53:00,73.0,37.0,-100.00,SSW,206,4.0,11.0,27,0.00,,,0.00,1089.000000,,2013-06-18 19:53:00,
2013-06-18 15:02:00,73.0,37.0,-100.00,SSW,206,4.0,11.0,27,0.00,,,0.00,1089.000000,,2013-06-18 20:02:00,
2013-06-18 15:23:00,75.0,36.0,-100.00,South,190,3.0,11.0,24,0.00,,,0.00,1049.000000,,2013-06-18 20:23:00,
2013-06-18 15:33:00,75.0,36.0,-100.00,South,190,3.0,11.0,24,0.00,,,0.00,1049.000000,,2013-06-18 20:33:00,
2013-06-18 15:43:00,75.0,36.0,-100.00,South,190,3.0,11.0,24,0.00,,,0.00,1049.000000,,2013-06-18 20:43:00,
2013-06-18 15:52:00,75.0,36.0,-100.00,South,190,3.0,11.0,24,0.00,,,0.00,1049.000000,,2013-06-18 20:52:00,
2013-06-18 16:01:00,75.0,36.0,-100.00,South,190,3.0,11.0,24,0.00,,,0.00,1049.000000,,2013-06-18 21:01:00,
2013-06-18 16:23:00,71.0,35.0,-100.00,East,86,4.0,11.0,27,0.00,,,0.00,741.000000,,2013-06-18 21:23:00,
2013-06-18 16:33:00,71.0,35.0,-100.00,East,86,4.0,11.0,27,0.00,,,0.00,741.000000,,2013-06-18 21:33:00,
2013-06-18 16:43:00,71.0,35.0,-100.00,East,86,4.0,11.0,27,0.00,,,0.00,741.000000,,2013-06-18 21:43:00,
2013-06-18 16:52:00,71.0,35.0,-100.00,East,86,4.0,11.0,27,0.00,,,0.00,741.000000,,2013-06-18 21:52:00,
2013-06-18 17:01:00,71.0,35.0,-100.00,East,86,4.0,11.0,27,0.00,,,0.00,741.000000,,2013-06-18 22:01:00,
2013-06-18 17:22:00,75.0,36.0,-100.00,West,279,3.0,8.0,24,0.00,,,0.00,819.000000,,2013-06-18 22:22:00,
2013-06-18 17:34:00,75.0,36.0,-100.00,West,279,3.0,8.0,24,0.00,,,0.00,819.000000,,2013-06-18 22:34:00,
2013-06-18 17:43:00,75.0,36.0,-100.00,West,279,3.0,8.0,24,0.00,,,0.00,819.000000,,2013-06-18 22:43:00,
2013-06-18 17:53:00,75.0,36.0,-100.00,West,279,3.0,8.0,24,0.00,,,0.00,819.000000,,2013-06-18 22:53:00,
2013-06-18 18:02:00,75.0,36.0,-100.00,West,279,3.0,8.0,24,0.00,,,0.00,819.000000,,2013-06-18 23:02:00,
2013-06-18 18:23:00,74.0,35.0,-100.00,South,169,5.0,9.0,24,0.00,,,0.00,610.000000,,2013-06-18 23:23:00,
2013-06-18 18:39:00,74.0,35.0,-100.00,South,169,5.0,9.0,24,0.00,,,0.00,610.000000,,2013-06-18 23:39:00,
2013-06-18 18:48:00,74.0,35.0,-100.00,South,169,5.0,9.0,24,0.00,,,0.00,610.000000,,2013-06-18 23:48:00,
2013-06-18 19:01:00,74.0,35.0,-100.00,South,169,5.0,9.0,24,0.00,,,0.00,610.000000,,2013-06-19 00:01:00,
2013-06-18 19:22:00,73.0,36.0,-100.00,WSW,242,4.0,13.0,26,0.00,,,0.00,410.000000,,2013-06-19 00:22:00,
2013-06-18 19:33:00,73.0,36.0,-100.00,WSW,242,4.0,13.0,26,0.00,,,0.00,410.000000,,2013-06-19 00:33:00,
2013-06-18 19:43:00,73.0,36.0,-100.00,WSW,242,4.0,13.0,26,0.00,,,0.00,410.000000,,2013-06-19 00:43:00,
2013-06-18 19:53:00,73.0,36.0,-100.00,WSW,242,4.0,13.0,26,0.00,,,0.00,410.000000,,2013-06-19 00:53:00,
2013-06-18 20:01:00,73.0,36.0,-100.00,WSW,242,4.0,13.0,26,0.00,,,0.00,410.000000,,2013-06-19 01:01:00,
2013-06-18 20:22:00,70.0,38.0,-100.00,SW,233,3.0,9.0,31,0.00,,,0.00,222.000000,,2013-06-19 01:22:00,
2013-06-18 20:32:00,70.0,38.0,-100.00,SW,233,3.0,9.0,31,0.00,,,0.00,222.000000,,2013-06-19 01:32:00,
2013-06-18 20:43:00,70.0,38.0,-100.00,SW,233,3.0,9.0,31,0.00,,,0.00,222.000000,,2013-06-19 01:43:00,
2013-06-18 20:53:00,70.0,38.0,-100.00,SW,233,3.0,9.0,31,0.00,,,0.00,222.000000,,2013-06-19 01:53:00,
2013-06-18 21:01:00,70.0,38.0,-100.00,SW,233,3.0,9.0,31,0.00,,,0.00,222.000000,,2013-06-19 02:01:00,
2013-06-18 21:21:00,63.0,36.0,-100.00,South,182,5.0,11.0,36,0.00,,,0.00,28.000000,,2013-06-19 02:21:00,
2013-06-18 21:32:00,63.0,36.0,-100.00,South,182,5.0,11.0,36,0.00,,,0.00,28.000000,,2013-06-19 02:32:00,
2013-06-18 21:42:00,63.0,36.0,-100.00,South,182,5.0,11.0,36,0.00,,,0.00,28.000000,,2013-06-19 02:42:00,
2013-06-18 21:52:00,63.0,36.0,-100.00,South,182,5.0,11.0,36,0.00,,,0.00,28.000000,,2013-06-19 02:52:00,
2013-06-18 22:01:00,63.0,36.0,-100.00,South,182,5.0,11.0,36,0.00,,,0.00,28.000000,,2013-06-19 03:01:00,
2013-06-18 22:22:00,58.0,34.0,-100.00,South,175,5.0,10.0,41,0.00,,,0.00,2.000000,,2013-06-19 03:22:00,
2013-06-18 22:33:00,58.0,34.0,-100.00,South,175,5.0,10.0,41,0.00,,,0.00,2.000000,,2013-06-19 03:33:00,
2013-06-18 22:43:00,58.0,34.0,-100.00,South,175,5.0,10.0,41,0.00,,,0.00,2.000000,,2013-06-19 03:43:00,
2013-06-18 22:52:00,58.0,34.0,-100.00,South,175,5.0,10.0,41,0.00,,,0.00,2.000000,,2013-06-19 03:52:00,
2013-06-18 23:01:00,58.0,34.0,-100.00,South,175,5.0,10.0,41,0.00,,,0.00,2.000000,,2013-06-19 04:01:00,
2013-06-18 23:23:00,56.0,34.0,-100.00,South,174,5.0,8.0,43,0.00,,,0.00,0.000000,,2013-06-19 04:23:00,
2013-06-18 23:33:00,56.0,34.0,-100.00,South,174,5.0,8.0,43,0.00,,,0.00,0.000000,,2013-06-19 04:33:00,
2013-06-18 23:43:00,56.0,34.0,-100.00,South,174,5.0,8.0,43,0.00,,,0.00,0.000000,,2013-06-19 04:43:00,
2013-06-18 23:53:00,56.0,34.0,-100.00,South,174,5.0,8.0,43,0.00,,,0.00,0.000000,,2013-06-19 04:53:00,